Change the Weather History Date:

Wednesday, February 25, 2015

  Actual Average Record
Temperature  
Mean Temperature 24 °F 35 °F  
Max Temperature 33 °F 44 °F 76 °F (2000)
Min Temperature 14 °F 27 °F -7 °F (1900)
Degree Days  
Heating Degree Days 41 30  
Month to date heating degree days 1096 835  
Since 1 July heating degree days 4573 4056  
Cooling Degree Days 0 0  
Month to date cooling degree days 0 0  
Year to date cooling degree days 0 0  
Moisture  
Dew Point 13 °F    
Average Humidity 63    
Maximum Humidity 88    
Minimum Humidity 38    
Precipitation  
Precipitation 0.00 in 0.09 in 2.35 in (1890)
Month to date precipitation 1.07 2.05  
Year to date precipitation 2.88 4.71  
Snow  
Snow 0.00 in 0.20 in 7.80 in (1965)
Month to date snowfall 11.1 6.0  
Since 1 July snowfall 17.0 22.6  
Snow Depth 4.00 in    
Sea Level Pressure  
Sea Level Pressure 29.93 in    
Wind  
Wind Speed 8 mph (NNE)    
Max Wind Speed 15 mph    
Max Gust Speed 19 mph    
Visibility 10 miles    
Events      
T = Trace of Precipitation, MM = Missing Value Source: NWS Daily Summary

Daily Weather History Graph

Daily Weather History Graph

Search for Another Location

Airport or City:

Trip Planner

Search our weather history database for the weather conditions in past years. The results will help you decide how hot, cold, wet, or windy it might be!

Date:

Astronomy

Feb. 25, 2015 Rise Set
Actual Time 7:24 AM EST 6:32 PM EST
Civil Twilight 6:57 AM EST 6:59 PM EST
Nautical Twilight 6:26 AM EST 7:31 PM EST
Astronomical Twilight 5:54 AM EST 8:02 PM EST
Moon 11:46 AM EST (2/25) 1:19 AM EST (2/25)
Length of Visible Light 12h 02m
Length of Day
11h 08m
Waxing Crescent, 50% of the Moon is Illuminated
Feb 25
Waxing Crescent
Feb 25
First Quarter
Mar 5
Full
Mar 13
Last Quarter
Mar 20
New

Hourly Weather History & Observations

Time (EST) Temp. Windchill Dew Point Humidity Pressure Visibility Wind Dir Wind Speed Gust Speed Precip Events Conditions
12:54 AM 21.9 °F 11.0 °F 12.9 °F 68% 29.88 in 10.0 mi WSW 10.4 mph - N/A   Partly Cloudy
1:54 AM 21.0 °F 10.6 °F 12.9 °F 71% 29.89 in 10.0 mi West 9.2 mph - N/A   Partly Cloudy
2:54 AM 21.0 °F 8.6 °F 14.0 °F 74% 29.90 in 10.0 mi West 12.7 mph - N/A   Clear
3:54 AM 17.6 °F 6.4 °F 12.2 °F 79% 29.87 in 10.0 mi West 9.2 mph - N/A   Clear
4:54 AM 17.1 °F 5.8 °F 12.0 °F 81% 29.92 in 10.0 mi WSW 9.2 mph - N/A   Partly Cloudy
5:54 AM 15.1 °F 4.2 °F 10.0 °F 80% 29.94 in 10.0 mi WSW 8.1 mph - N/A   Scattered Clouds
6:54 AM 16.0 °F 7.4 °F 10.9 °F 81% 29.96 in 10.0 mi WSW 5.8 mph - N/A   Mostly Cloudy
7:54 AM 15.1 °F 9.4 °F 12.0 °F 88% 29.99 in 9.0 mi West 3.5 mph - N/A   Mostly Cloudy
8:54 AM 17.1 °F 11.7 °F 14.0 °F 88% 30.00 in 8.0 mi SW 3.5 mph - N/A   Mostly Cloudy
9:54 AM 21.0 °F 16.2 °F 14.0 °F 74% 30.02 in 8.0 mi West 3.5 mph - N/A   Mostly Cloudy
10:54 AM 28.0 °F - 16.0 °F 61% 30.01 in 10.0 mi Calm Calm - N/A   Mostly Cloudy
11:54 AM 30.2 °F 25.4 °F 14.0 °F 51% 29.93 in 10.0 mi East 4.6 mph - N/A   Mostly Cloudy
12:54 PM 30.9 °F 25.2 °F 12.0 °F 46% 29.92 in 10.0 mi East 5.8 mph - N/A   Mostly Cloudy
1:54 PM 33.1 °F 30.0 °F 10.9 °F 40% 29.93 in 10.0 mi Variable 3.5 mph - N/A   Mostly Cloudy
2:54 PM 32.0 °F 25.6 °F 14.0 °F 48% 29.90 in 10.0 mi East 6.9 mph - N/A   Mostly Cloudy
3:54 PM 32.0 °F 28.7 °F 14.0 °F 48% 29.92 in 10.0 mi Variable 3.5 mph - N/A   Mostly Cloudy
4:54 PM 32.0 °F 24.8 °F 14.0 °F 48% 29.92 in 10.0 mi East 8.1 mph - N/A   Mostly Cloudy
5:54 PM 30.9 °F 23.5 °F 15.1 °F 52% 29.93 in 10.0 mi East 8.1 mph - N/A   Overcast
6:54 PM 30.0 °F 20.5 °F 14.0 °F 51% 29.92 in 10.0 mi ENE 11.5 mph - N/A   Overcast
7:54 PM 28.0 °F 18.1 °F 17.1 °F 63% 29.92 in 10.0 mi NE 11.5 mph - N/A   Overcast
8:54 PM 28.0 °F 18.1 °F 16.0 °F 61% 29.92 in 10.0 mi NE 11.5 mph - N/A   Overcast
9:54 PM 27.0 °F 17.3 °F 16.0 °F 63% 29.94 in 10.0 mi East 10.4 mph - N/A   Overcast
10:54 PM 26.1 °F 15.6 °F 14.0 °F 60% 29.94 in 10.0 mi NE 11.5 mph - N/A   Overcast
11:54 PM 25.0 °F 14.2 °F 14.0 °F 63% 29.94 in 10.0 mi NE 11.5 mph - N/A   Overcast